This demonstration page uses our WeatherBlox Daily Observations layout. Learn more.

Left ArrowRight Arrow

38.20091, -84.87328

Hourly Observations for July 18, 2021

Temp ( °F °C ) Dew Point ( °F °C ) Humidity (%) Winds ( mph kmh ) Pressure ( in mb ) Visibility ( mi km ) Precip ( " mm )
12:53 am 00:53 Clear 71 21.7 69 20.6 94 94 Calm 30.11 1020 8 13 0.00 0.00
1:53 am 01:53 Mostly Clear 69 20.6 68 20 96 96 Calm 30.11 1020 7 11 0.00 0.00
2:53 am 02:53 Partly Cloudy 69 20.6 68 20 96 96 Calm 30.11 1020 7 11 0.00 0.00
3:53 am 03:53 Cloudy 72 22.2 69 20.6 91 91 ENE 5 7 30.10 1019 10 16 0.00 0.00
4:53 am 04:53 Mostly Cloudy 71 21.7 69 20.6 94 94 ENE 6 9 30.11 1020 10 16 0.00 0.00
5:53 am 05:53 Clear 70 21.1 68 20 93 93 ENE 5 7 30.12 1020 10 16 0.00 0.00
6:53 am 06:53 Mostly Sunny 70 21.1 67 19.4 90 90 ENE 7 11 30.14 1021 10 16 0.00 0.00
7:06 am 07:06 Mostly Cloudy 70 21.1 67 19.4 90 90 ENE 6 9 30.14 1021 10 16 0.00 0.00
7:53 am 07:53 Cloudy 71 21.7 67 19.4 87 87 E 8 13 30.15 1021 10 16 0.00 0.00
8:10 am 08:10 Partly Cloudy 71 21.7 66 18.9 84 84 E 8 13 30.15 1021 10 16 0.00 0.00
8:53 am 08:53 Sunny 72 22.2 65 18.3 79 79 E 9 15 30.16 1021 10 16 0.00 0.00
9:30 am 09:30 Mostly Cloudy 74 23.3 64 17.8 71 71 E 12 19 30.16 1021 10 16 0.00 0.00
9:53 am 09:53 Cloudy 74 23.3 63 17.2 69 69 ENE 10 17 30.17 1022 10 16 0.00 0.00
10:02 am 10:02 Cloudy 74 23.3 63 17.2 69 69 E 8 13 30.17 1022 10 16 0.00 0.00
10:53 am 10:53 Sunny 77 25 63 17.2 62 62 E 12 19 30.16 1021 10 16 0.00 0.00
11:53 am 11:53 Mostly Sunny 77 25 64 17.8 64 64 E 6 9 30.16 1022 10 16 0.00 0.00
12:53 pm 12:53 Sunny 80 26.7 64 17.8 58 58 E 3 6 30.16 1021 10 16 0.00 0.00
1:53 pm 13:53 Sunny 82 27.8 65 18.3 56 56 NE 9 15 30.13 1020 10 16 0.00 0.00
2:53 pm 14:53 Sunny 82 27.8 63 17.2 53 53 E 8 13 30.13 1020 10 16 0.00 0.00
3:53 pm 15:53 Sunny 82 27.8 64 17.8 55 55 NNE 5 7 30.12 1020 10 16 0.00 0.00
4:53 pm 16:53 Sunny 81 27.2 63 17.2 54 54 NE 9 15 30.11 1020 10 16 0.00 0.00
5:53 pm 17:53 Sunny 80 26.7 65 18.3 60 60 E 7 11 30.10 1019 10 16 0.00 0.00
6:53 pm 18:53 Sunny 79 26.1 62 16.7 56 56 ENE 9 15 30.09 1019 10 16 0.00 0.00
7:53 pm 19:53 Sunny 78 25.6 61 16.1 56 56 ENE 9 15 30.09 1019 10 16 0.00 0.00
8:53 pm 20:53 Sunny 76 24.4 62 16.7 62 62 ENE 7 11 30.11 1020 10 16 0.00 0.00
9:53 pm 21:53 Clear 75 23.9 62 16.7 64 64 NE 6 9 30.11 1020 10 16 0.00 0.00
10:53 pm 22:53 Clear 73 22.8 62 16.7 69 69 NE 5 7 30.12 1020 10 16 0.00 0.00
11:53 pm 23:53 Clear 69 20.6 63 17.2 81 81 ENE 5 7 30.12 1020 10 16 0.00 0.00

Powered by AerisWeather